DW5542 Weather Reports


Display with metric or nautical units.
time (UTC)temp
F
wind
direction
speed
MPH
gust
MPH
rain 1hr
in
rain 24hr
in
rain mn
in
humidity
%
barometer
mb
20260904110025 85 255 0.0 11.0 0.00 0.00 0.00 71 1017.5
20260904104525 85 241 1.0 9.0 0.00 0.00 0.00 72 1017.6
20260904103023 85 163 0.0 10.0 0.00 0.00 0.00 73 1017.8
20260904101521 86 151 0.0 5.0 0.00 0.00 0.00 70 1017.8
20260904100020 86 219 0.0 1.0 0.00 0.00 0.00 66 1017.9
20260904094518 85 232 0.0 1.0 0.00 0.00 0.00 66 1017.9
20260904093019 85 166 0.0 0.0 0.00 0.00 0.00 65 1017.8
20260904091514 85 332 0.0 0.0 0.00 0.00 0.00 62 1017.9
20260904090012 84 250 0.0 3.0 0.00 0.00 0.00 63 1017.9
20260904084509 83 244 0.0 5.0 0.00 0.00 0.00 64 1017.7
20260904083006 82 284 0.0 0.0 0.00 0.00 0.00 67 1017.7
20260904081506 81 343 0.0 0.0 0.00 0.00 0.00 68 1017.7
20260904080100 80 335 0.0 0.0 0.00 0.00 0.00 70 1017.6
20260904074609 79 328 0.0 3.0 0.00 0.00 0.00 73 1017.7
20260904073058 78 318 0.0 0.0 0.00 0.00 0.00 76 1017.7
20260904071551 76 312 0.0 0.0 0.00 0.00 0.00 78 1017.8
20260904070051 76 281 0.0 0.0 0.00 0.00 0.00 81 1017.9
20260904064550 75 337 0.0 0.0 0.00 0.00 0.00 84 1017.9
20260904063058 73 337 0.0 0.0 0.00 0.00 0.00 85 1018.0
20260904061548 73 337 0.0 0.0 0.00 0.00 0.00 86 1017.9
20260904060047 72 337 0.0 0.0 0.00 0.00 0.00 86 1017.8
20260904054543 0 0.0 0.0 0.00 0.00 0.00 1017.7
20260904053039 0 0.0 0.0 0.00 0.00 0.00 1017.8
20260904051554 0 0.0 0.0 0.00 0.00 0.00 1017.8
20260904050030 0 0.0 0.0 0.00 0.00 0.00 1017.9
20260904044526 0 0.0 0.0 0.00 0.00 0.00 1017.9
20260904043021 0 0.0 0.0 0.00 0.00 0.00 1017.9
20260904041520 0 0.0 0.0 0.00 0.00 0.00 1017.8
20260904040020 0 0.0 0.0 0.00 0.00 0.00 1017.8
20260904034508 0 0.0 0.0 0.00 0.00 0.00 1018.0
20260904033003 73 337 0.0 0.0 0.00 0.00 0.00 85 1018.1
20260904031502 74 338 0.0 0.0 0.00 0.00 0.00 85 1018.1
20260904030100 74 337 0.0 0.0 0.00 0.00 0.00 86 1018.2
20260904024559 74 338 0.0 0.0 0.00 0.00 0.00 86 1018.0
20260904023056 75 338 0.0 0.0 0.00 0.00 0.00 86 1018.1
20260904021554 75 337 0.0 0.0 0.00 0.00 0.00 86 1018.2
20260904020052 75 328 0.0 0.0 0.00 0.00 0.00 86 1018.3
20260904014603 75 316 0.0 0.0 0.00 0.00 0.00 86 1018.4
20260904013048 75 333 0.0 0.0 0.00 0.00 0.00 87 1018.5
20260904011547 76 309 0.0 0.0 0.00 0.00 0.00 88 1018.5
20260904010059 75 327 0.0 0.0 0.00 0.00 0.00 88 1018.6
20260904004544 76 333 0.0 0.0 0.00 0.00 0.00 87 1018.8
20260904003042 76 333 0.0 0.0 0.00 0.00 0.00 87 1018.8
20260904001543 76 326 0.0 0.0 0.00 0.00 0.00 87 1018.8
20260904000047 76 312 0.0 2.0 0.00 0.00 0.00 87 1018.8
20260903234537 77 321 0.0 0.0 0.00 0.00 0.00 87 1018.9
20260903233035 77 335 0.0 0.0 0.00 0.00 0.00 87 1019.1
20260903231534 77 335 0.0 0.0 0.00 0.00 0.00 87 1019.2
20260903230033 77 340 0.0 0.0 0.00 0.00 0.00 88 1019.1
20260903224531 77 342 0.0 0.0 0.00 0.00 0.00 87 1019.2
20260903223034 77 347 0.0 0.0 0.00 0.00 0.00 87 1019.3
20260903221527 78 329 0.0 0.0 0.00 0.00 0.00 87 1019.4
20260903220024 78 326 0.0 0.0 0.00 0.00 0.00 87 1019.5
20260903214524 78 316 0.0 0.0 0.00 0.00 0.00 87 1019.7
20260903213022 79 111 0.0 0.0 0.00 0.00 0.00 87 1019.7
20260903211523 79 114 0.0 0.0 0.00 0.00 0.00 86 1019.7
20260903210023 79 115 0.0 0.0 0.00 0.00 0.00 87 1019.7
20260903204521 79 115 0.0 0.0 0.00 0.00 0.00 87 1019.8
20260903203032 80 110 0.0 0.0 0.00 0.00 0.00 86 1019.6
20260903201520 80 135 0.0 0.0 0.00 0.00 0.00 85 1019.7
20260903200020 80 158 0.0 0.0 0.00 0.00 0.00 85 1019.4
20260903194520 80 133 0.0 0.0 0.00 0.00 0.00 84 1019.2
20260903193018 80 111 0.0 0.0 0.00 0.00 0.00 84 1019.0
20260903191518 80 129 0.0 0.0 0.00 0.00 0.00 84 1018.8
20260903190017 80 145 0.0 0.0 0.00 0.00 0.00 83 1018.7
20260903184519 81 110 0.0 0.0 0.00 0.00 0.00 82 1018.5
20260903183015 81 148 0.0 0.0 0.00 0.00 0.00 81 1018.3
20260903181515 82 127 0.0 0.0 0.00 0.00 0.00 79 1018.3
20260903180015 82 134 0.0 0.0 0.00 0.00 0.00 79 1018.4
20260903174519 83 117 0.0 3.0 0.00 0.00 0.00 80 1018.2
20260903173013 83 136 0.0 1.0 0.00 0.00 0.00 76 1018.3
20260903171513 84 156 0.0 1.0 0.00 0.00 0.00 74 1018.2
20260903170016 84 142 0.0 1.0 0.00 0.00 0.00 72 1018.1
20260903164512 85 180 0.0 6.0 0.00 0.00 0.00 69 1018.1
20260903163011 84 159 0.0 5.0 0.00 0.00 0.00 70 1018.1
20260903161509 85 178 0.0 3.0 0.00 0.00 0.00 72 1018.1
20260903160027 85 172 0.0 3.0 0.00 0.00 0.00 71 1018.2
20260903154510 85 191 0.0 3.0 0.00 0.00 0.00 69 1018.3
20260903153007 86 204 0.0 10.0 0.00 0.00 0.00 68 1018.3
20260903151507 86 195 0.0 3.0 0.00 0.00 0.00 66 1018.4
20260903150018 86 170 0.0 3.0 0.00 0.00 0.00 63 1018.4
20260903144510 87 152 0.0 6.0 0.00 0.00 0.00 64 1018.5
20260903143009 86 200 0.0 4.0 0.00 0.00 0.00 63 1018.6
20260903141506 87 109 0.0 8.0 0.00 0.00 0.00 64 1018.7
20260903140002 87 135 0.0 1.0 0.00 0.00 0.00 63 1018.8
20260903134609 87 170 0.0 4.0 0.00 0.00 0.00 63 1018.9
20260903133106 88 184 0.0 1.0 0.00 0.00 0.00 60 1019.0
20260903131558 87 154 0.0 1.0 0.00 0.00 0.00 60 1019.1
20260903130057 87 197 0.0 8.0 0.00 0.00 0.00 63 1019.2
20260903124558 87 160 0.0 7.0 0.00 0.00 0.00 62 1019.3
20260903123052 87 149 0.0 7.0 0.00 0.00 0.00 61 1019.4
20260903121549 86 175 0.0 1.0 0.00 0.00 0.00 64 1019.5
20260903120101 86 160 0.0 1.0 0.00 0.00 0.00 68 1019.6
20260903114547 86 215 0.0 0.0 0.00 0.00 0.00 68 1019.7
20260903113044 85 131 0.0 6.0 0.00 0.00 0.00 68 1019.8
20260903111543 85 143 0.0 1.0 0.00 0.00 0.00 70 1019.9